| time (UTC) | temp F | wind direction | speed MPH | gust MPH | rain 1hr in | rain 24hr in | rain mn in | humidity % | barometer mb |
| 20260906101550 | 58 | 165 | 3.0 | 10.0 | 0.00 | 0.00 | 0.00 | 70 | 1025.2 |
| 20260906100047 | 58 | 138 | 5.0 | 13.0 | 0.00 | 0.00 | 0.00 | 69 | 1025.0 |
| 20260906094546 | 59 | 137 | 6.0 | 14.0 | 0.00 | 0.00 | 0.00 | 69 | 1024.8 |
| 20260906093044 | 59 | 127 | 3.0 | 15.0 | 0.00 | 0.00 | 0.00 | 71 | 1024.6 |
| 20260906091540 | 59 | 115 | 3.0 | 10.0 | 0.00 | 0.00 | 0.00 | 73 | 1024.5 |
| 20260906090039 | 60 | 184 | 4.0 | 14.0 | 0.00 | 0.00 | 0.00 | 71 | 1024.3 |
| 20260906084537 | 60 | 145 | 6.0 | 17.0 | 0.00 | 0.00 | 0.00 | 70 | 1024.1 |
| 20260906083040 | 61 | 113 | 5.0 | 14.0 | 0.00 | 0.00 | 0.00 | 70 | 1023.8 |
| 20260906081537 | 62 | 157 | 4.0 | 12.0 | 0.00 | 0.00 | 0.00 | 70 | 1023.4 |
| 20260906080033 | 60 | 179 | 4.0 | 10.0 | 0.00 | 0.00 | 0.00 | 74 | 1023.3 |
| 20260906074534 | 60 | 150 | 5.0 | 14.0 | 0.00 | 0.00 | 0.00 | 76 | 1023.3 |
| 20260906073029 | 61 | 125 | 3.0 | 13.0 | 0.00 | 0.00 | 0.00 | 72 | 1023.1 |
| 20260906071528 | 60 | 192 | 2.0 | 16.0 | 0.00 | 0.00 | 0.00 | 76 | 1022.9 |
| 20260906070030 | 62 | 168 | 6.0 | 12.0 | 0.00 | 0.00 | 0.00 | 71 | 1022.8 |
| 20260906064534 | 62 | 186 | 4.0 | 14.0 | 0.00 | 0.00 | 0.00 | 71 | 1022.7 |
| 20260906063026 | 62 | 186 | 4.0 | 18.0 | 0.00 | 0.00 | 0.00 | 71 | 1022.4 |
| 20260906061526 | 61 | 107 | 6.0 | 12.0 | 0.00 | 0.00 | 0.00 | 74 | 1022.1 |
| 20260906060027 | 63 | 121 | 3.0 | 10.0 | 0.00 | 0.00 | 0.00 | 68 | 1021.9 |
| 20260906054520 | 62 | 136 | 5.0 | 15.0 | 0.00 | 0.00 | 0.00 | 75 | 1022.0 |
| 20260906053025 | 60 | 108 | 4.0 | 12.0 | 0.00 | 0.00 | 0.00 | 76 | 1022.3 |
| 20260906051518 | 59 | 163 | 5.0 | 23.0 | 0.00 | 0.00 | 0.00 | 79 | 1022.5 |
| 20260906050044 | 60 | 136 | 4.0 | 14.0 | 0.00 | 0.00 | 0.00 | 75 | 1022.4 |
| 20260906044516 | 60 | 195 | 1.0 | 12.0 | 0.00 | 0.00 | 0.00 | 77 | 1022.5 |
| 20260906043016 | 61 | 193 | 5.0 | 16.0 | 0.00 | 0.00 | 0.00 | 73 | 1022.6 |
| 20260906041516 | 59 | 186 | 4.0 | 12.0 | 0.00 | 0.00 | 0.00 | 78 | 1022.8 |
| 20260906040012 | 59 | 203 | 2.0 | 9.0 | 0.00 | 0.00 | 0.00 | 79 | 1022.9 |
| 20260906034510 | 59 | 143 | 3.0 | 10.0 | 0.00 | 0.00 | 0.00 | 74 | 1022.8 |
| 20260906033008 | 59 | 142 | 3.0 | 14.0 | 0.00 | 0.00 | 0.00 | 75 | 1022.7 |
| 20260906031506 | 59 | 167 | 5.0 | 17.0 | 0.00 | 0.00 | 0.00 | 74 | 1022.6 |
| 20260906030006 | 59 | 173 | 4.0 | 14.0 | 0.00 | 0.00 | 0.00 | 76 | 1022.6 |
| 20260906024507 | 58 | 118 | 5.0 | 12.0 | 0.00 | 0.00 | 0.00 | 77 | 1022.6 |
| 20260906023005 | 58 | 136 | 7.0 | 18.0 | 0.00 | 0.00 | 0.00 | 76 | 1022.5 |
| 20260906021502 | 58 | 194 | 4.0 | 16.0 | 0.00 | 0.00 | 0.00 | 77 | 1022.4 |
| 20260906014557 | 58 | 126 | 7.0 | 17.0 | 0.00 | 0.00 | 0.00 | 78 | 1022.5 |
| 20260906013050 | 57 | 155 | 6.0 | 14.0 | 0.00 | 0.00 | 0.00 | 80 | 1022.5 |
| 20260906011546 | 56 | 187 | 6.0 | 13.0 | 0.00 | 0.00 | 0.00 | 80 | 1022.6 |
| 20260906010045 | 56 | 185 | 2.0 | 10.0 | 0.00 | 0.00 | 0.00 | 81 | 1022.6 |
| 20260906004544 | 56 | 158 | 4.0 | 16.0 | 0.00 | 0.00 | 0.00 | 81 | 1022.5 |
| 20260906003042 | 56 | 130 | 2.0 | 11.0 | 0.00 | 0.00 | 0.00 | 84 | 1022.1 |
| 20260906001536 | 55 | 130 | 3.0 | 8.0 | 0.00 | 0.00 | 0.00 | 85 | 1022.1 |
| 20260906000034 | 55 | 174 | 0.0 | 5.0 | 0.00 | 0.00 | 0.00 | 86 | 1021.9 |
| 20260905234531 | 55 | 131 | 4.0 | 9.0 | 0.00 | 0.00 | 0.00 | 86 | 1021.8 |
| 20260905233028 | 54 | 196 | 1.0 | 5.0 | 0.00 | 0.00 | 0.00 | 89 | 1021.6 |
| 20260905231522 | 54 | 208 | 1.0 | 4.0 | 0.00 | 0.00 | 0.00 | 89 | 1021.4 |
| 20260905230019 | 53 | 139 | 0.0 | 2.0 | 0.00 | 0.00 | 0.00 | 89 | 1021.2 |
| 20260905224516 | 53 | 139 | 0.0 | 5.0 | 0.00 | 0.00 | 0.00 | 88 | 1021.0 |
| 20260905223015 | 53 | 146 | 0.0 | 3.0 | 0.00 | 0.00 | 0.00 | 88 | 1020.8 |
| 20260905221512 | 53 | 146 | 0.0 | 3.0 | 0.00 | 0.00 | 0.00 | 88 | 1020.5 |
| 20260905220010 | 53 | 109 | 1.0 | 6.0 | 0.00 | 0.00 | 0.00 | 88 | 1020.1 |
| 20260905214507 | 53 | 216 | 0.0 | 5.0 | 0.00 | 0.00 | 0.00 | 88 | 1019.8 |
| 20260905213004 | 53 | 128 | 1.0 | 6.0 | 0.00 | 0.00 | 0.00 | 88 | 1019.4 |
| 20260905211501 | 53 | 159 | 1.0 | 5.0 | 0.00 | 0.00 | 0.00 | 88 | 1019.0 |
| 20260905210059 | 53 | 146 | 1.0 | 6.0 | 0.00 | 0.00 | 0.00 | 89 | 1018.7 |
| 20260905204557 | 53 | 121 | 2.0 | 6.0 | 0.00 | 0.00 | 0.00 | 89 | 1018.3 |
| 20260905203054 | 53 | 197 | 2.0 | 7.0 | 0.00 | 0.00 | 0.00 | 90 | 1017.9 |
| 20260905201551 | 54 | 203 | 0.0 | 5.0 | 0.00 | 0.00 | 0.00 | 90 | 1017.5 |
| 20260905200054 | 54 | 107 | 1.0 | 4.0 | 0.00 | 0.00 | 0.00 | 90 | 1017.3 |
| 20260905194552 | 54 | 209 | 1.0 | 5.0 | 0.00 | 0.00 | 0.00 | 90 | 1017.1 |
| 20260905193045 | 54 | 196 | 1.0 | 5.0 | 0.00 | 0.00 | 0.00 | 91 | 1017.0 |
| 20260905191543 | 53 | 211 | 1.0 | 4.0 | 0.00 | 0.00 | 0.00 | 90 | 1016.9 |
| 20260905190041 | 53 | 227 | 5.0 | 7.0 | 0.00 | 0.00 | 0.00 | 89 | 1016.8 |
| 20260905184548 | 53 | 223 | 4.0 | 6.0 | 0.00 | 0.00 | 0.00 | 89 | 1016.7 |
| 20260905183041 | 53 | 236 | 4.0 | 8.0 | 0.00 | 0.00 | 0.00 | 89 | 1016.6 |
| 20260905181535 | 53 | 223 | 5.0 | 10.0 | 0.00 | 0.00 | 0.00 | 89 | 1016.6 |
| 20260905180033 | 53 | 241 | 1.0 | 3.0 | 0.00 | 0.00 | 0.00 | 89 | 1016.6 |
| 20260905174540 | 53 | 241 | 0.0 | 0.0 | 0.00 | 0.00 | 0.00 | 89 | 1016.5 |
| 20260905173031 | 54 | 241 | 0.0 | 1.0 | 0.00 | 0.00 | 0.00 | 89 | 1016.6 |
| 20260905171534 | 54 | 241 | 0.0 | 2.0 | 0.00 | 0.00 | 0.00 | 90 | 1016.5 |
| 20260905170031 | 54 | 241 | 0.0 | 0.0 | 0.00 | 0.00 | 0.00 | 89 | 1016.5 |
| 20260905164529 | 54 | 240 | 2.0 | 5.0 | 0.00 | 0.00 | 0.00 | 90 | 1016.6 |
| 20260905163026 | 54 | 240 | 0.0 | 3.0 | 0.00 | 0.00 | 0.00 | 89 | 1016.6 |
| 20260905161524 | 54 | 240 | 1.0 | 4.0 | 0.00 | 0.00 | 0.00 | 89 | 1016.4 |
| 20260905160039 | 54 | 240 | 1.0 | 4.0 | 0.00 | 0.00 | 0.00 | 88 | 1016.5 |
| 20260905154521 | 53 | 115 | 0.0 | 3.0 | 0.00 | 0.00 | 0.00 | 89 | 1016.6 |
| 20260905153024 | 53 | 225 | 2.0 | 4.0 | 0.00 | 0.00 | 0.00 | 87 | 1016.6 |
| 20260905151520 | 53 | 225 | 1.0 | 4.0 | 0.00 | 0.00 | 0.00 | 86 | 1016.7 |
| 20260905150026 | 53 | 225 | 2.0 | 5.0 | 0.00 | 0.00 | 0.00 | 87 | 1016.9 |
| 20260905144538 | 52 | 225 | 0.0 | 0.0 | 0.00 | 0.00 | 0.00 | 87 | 1016.8 |
| 20260905143023 | 52 | 225 | 0.0 | 1.0 | 0.00 | 0.00 | 0.00 | 87 | 1016.7 |
| 20260905141530 | 51 | 225 | 0.0 | 3.0 | 0.00 | 0.00 | 0.00 | 87 | 1017.0 |
| 20260905140017 | 51 | 225 | 3.0 | 5.0 | 0.00 | 0.00 | 0.00 | 88 | 1017.0 |
| 20260905134518 | 51 | 263 | 2.0 | 4.0 | 0.00 | 0.00 | 0.00 | 87 | 1017.1 |
| 20260905133018 | 51 | 19 | 0.0 | 0.0 | 0.00 | 0.00 | 0.00 | 88 | 1017.0 |
| 20260905131514 | 50 | 19 | 0.0 | 0.0 | 0.00 | 0.00 | 0.00 | 87 | 1016.9 |
| 20260905130015 | 50 | 19 | 0.0 | 0.0 | 0.00 | 0.00 | 0.00 | 87 | 1016.8 |
| 20260905124516 | 50 | 19 | 0.0 | 2.0 | 0.00 | 0.00 | 0.00 | 85 | 1016.7 |
| 20260905123014 | 51 | 19 | 1.0 | 3.0 | 0.00 | 0.00 | 0.00 | 86 | 1016.5 |
| 20260905121514 | 51 | 19 | 0.0 | 1.0 | 0.00 | 0.00 | 0.00 | 85 | 1016.4 |
| 20260905120012 | 51 | 19 | 0.0 | 4.0 | 0.00 | 0.00 | 0.00 | 86 | 1016.2 |
| 20260905114512 | 51 | 360 | 0.0 | 0.0 | 0.00 | 0.00 | 0.00 | 85 | 1016.2 |
| 20260905113015 | 51 | 360 | 0.0 | 0.0 | 0.00 | 0.00 | 0.00 | 82 | 1016.1 |
| 20260905111511 | 52 | 360 | 0.0 | 0.0 | 0.00 | 0.00 | 0.00 | 82 | 1016.1 |
| 20260905110015 | 52 | 360 | 0.0 | 0.0 | 0.00 | 0.00 | 0.00 | 82 | 1015.8 |
| 20260905104510 | 53 | 360 | 0.0 | 0.0 | 0.00 | 0.00 | 0.00 | 79 | 1015.4 |
| 20260905103017 | 55 | 360 | 0.0 | 0.0 | 0.00 | 0.00 | 0.00 | 76 | 1015.3 |